Regional Weather Roundup
Issued by NWS

Home | Current Version | Previous Version | Graphics & Text | Print | Product List | Glossary On
Versions: 1 2 3 4 5 6 7 8 9 10 11 12 13 14 15 16 17 18 19 20 21 22 23 24 25 26 27 28 29 30 31 32 33 34 35 36 37 38 39 40 41 42 43 44 45 46 47 48 49 50
608
ASUS43 KMKX 282021
RWRWI

WISCONSIN REGIONAL WEATHER ROUNDUP
NATIONAL WEATHER SERVICE MILWAUKEE/SULLIVAN WI
300 PM CDT THU JUL 28 2016

NOTE: "FAIR" INDICATES FEW OR NO CLOUDS BELOW 12,000 FEET WITH NO
SIGNIFICANT WEATHER AND/OR OBSTRUCTIONS TO VISIBILITY.

WIZ001-002-006>008-014>016-023>028-282100-
NORTHWEST WISCONSIN

CITY           SKY/WX    TMP DP  RH WIND       PRES   REMARKS
SUPERIOR ARPT  CLOUDY    66  59  78 E9        30.09F
ASHLAND        CLOUDY    70  60  70 N13       30.09R
HAYWARD        CLOUDY    72  57  59 NE12      30.06S
SIREN          CLOUDY    73  55  53 NE12G17   30.05F
CUMBERLAND     MOSUNNY   72  54  53 NE14G20   30.03F
RICE LAKE      MOSUNNY   74  59  59 N12G17    30.04S
CHETEK         CLOUDY    74  60  63 NE6       30.02S
LADYSMITH      PTSUNNY   74  58  56 NE9       30.05S
EAU CLAIRE     CLOUDY    67  64  90 E12       30.00S
MENOMONIE      CLOUDY    71  71  98 NE7       30.01S
NEW RICHMOND   PTSUNNY   74  58  56 NE12      30.02F
OSCEOLA        CLOUDY    73  58  61 NE13G20   30.05F
$$

WIZ003>005-009-010-017-018-282100-
NORTH CENTRAL WISCONSIN

CITY           SKY/WX    TMP DP  RH WIND       PRES   REMARKS
MANITOWISH WTR PTSUNNY   71  56  60 NE8       30.05S
ARBOR VITAE    MOSUNNY   72  55  54 NE5       30.05S
WOODRUFF       MOSUNNY   72  55  54 NE5       30.05S
RHINELANDER    CLOUDY    72  57  59 NE5       30.04S
EAGLE RIVER    PTSUNNY   73  53  48 NE9       30.04F
LAND O LAKES   CLOUDY    73  53  50 NE8       30.06S
PHILLIPS       PTSUNNY   72  57  57 NE12      30.04S
TOMAHAWK       CLOUDY    71  57  62 NE5       30.04S
MEDFORD        CLOUDY    63  62  97 E3        30.03S
MERRILL        CLOUDY    66  62  86 S3        30.04S
$$

WIZ029-030-035-036-043>047-282100-
CENTRAL WISCONSIN

CITY           SKY/WX    TMP DP  RH WIND       PRES   REMARKS
WAUSAU         CLOUDY    63  58  83 NE5       30.01F
MOSINEE        CLOUDY    63  57  82 NE9       30.03S
MARSHFIELD     LGT RAIN  62  60  93 NE14      29.99F FOG
STEVENS POINT  CLOUDY    64  61  89 NE10      30.01S
WAUPACA        CLOUDY    71  65  83 N12       29.99R
WAUTOMA        CLOUDY    70  64  81 NE10      29.96S
WISC RAPIDS    CLOUDY    69  60  73 NE14G23   29.99F
CAMP DOUGLAS   NOT AVBL
$$

WIZ011>013-019>022-031-037>040-048>050-282100-
NORTHEAST WISCONSIN

CITY           SKY/WX    TMP DP  RH WIND       PRES   REMARKS
ANTIGO         CLOUDY    64  58  78 CALM      30.04F
SHAWANO        CLOUDY    69  63  80 NE8       30.01S
OCONTO         CLOUDY    64  64 100 NE7       30.00S
STURGEON BAY   CLOUDY    67  60  78 N5        30.00F
GREEN BAY      LGT RAIN  65  65 100 NE13      29.99S
MANITOWOC      MOSUNNY   70  62  76 NE8G18    29.98R
APPLETON       CLOUDY    70  61  73 NE14      29.97S
CLINTONVILLE   CLOUDY    64  61  88 NE6       30.01S
OSHKOSH        CLOUDY    70  63  78 NE15G22   29.96S
$$

WIZ032>034-041-042-053>061-282100-
SOUTHWEST WISCONSIN

CITY           SKY/WX    TMP DP  RH WIND       PRES   REMARKS
LA CROSSE      CLOUDY    67  63  87 N12       29.96S
SPARTA         CLOUDY    67  64  91 N7        29.97R
VIROQUA        CLOUDY    68  68 100 NE8       29.94S
BOSCOBEL       PTSUNNY   76  71  85 VRB3      29.90F
PRAIRIE DU CHI CLOUDY    75  66  75 NW5       29.90F
PLATTEVILLE    MOSUNNY   79  72  78 NW10      29.89F HX  83
$$

WIZ056-057-062-063-064-067-068-282100-
SOUTH CENTRAL WISCONSIN

CITY           SKY/WX    TMP DP  RH WIND       PRES   REMARKS
REEDSBURG      CLOUDY    71  66  86 NE7       29.93R
BARABOO/DELLS  CLOUDY    71  64  79 E10       29.93F
LONE ROCK      CLOUDY    75  68  78 E10       29.91S
MINERAL POINT  MOSUNNY   79  72  78 NE8       29.90F HX  82
MADISON        CLOUDY    79  69  71 NE12      29.90S HX  81
MIDDLETON      CLOUDY    75  68  78 NE10G18   29.90F
WATERTOWN      CLOUDY    74  70  85 NE10      29.91S
MONROE         CLOUDY    73  66  78 E9G16     29.90R
JANESVILLE     PTSUNNY   70  66  88 S12       29.90S
$$

WIZ051-052-058>065-066-070>072-282100-
SOUTHEAST WISCONSIN

CITY           SKY/WX    TMP DP  RH WIND       PRES   REMARKS
MILWAUKEE      CLOUDY    72  63  73 N16G24    29.91S
WAUKESHA       MOSUNNY   72  64  78 NE10G17   29.93F
MILWAUKEE/TIMM CLOUDY    73  61  64 NE14      29.93F
RACINE         CLOUDY    72  64  76 N14G22    29.92S
BURLINGTON     CLOUDY    77  66  70 SW16G23   29.94R
KENOSHA        MOSUNNY   79  66  64 E8        29.91R HX  81
FOND DU LAC    CLOUDY    75  64  68 NE10      29.95S
SHEBOYGAN      CLOUDY    69  61  75 NE14      29.96S
WEST BEND      CLOUDY    70  61  73 NE10G17   29.94F
JUNEAU         CLOUDY    73  65  76 NE13      29.94F
$$

LSZ147-162-282100-
LAKE SUPERIOR

STATION/POSITION TIME  TEMP    WIND        PRES    WAVE
                       AIR SEA DIR/SP/G            HT/PER
                 (UTC) (F)     (DEG/KT/KT) (MB)    (FT/S)
W MID LAKE BUOY  1950   61 61   50/ 10/ 12 1019.1S   2/ 5
DEVILS ISLAND    2000   63      60/ 17/ 18 1019.1F
PORT WING        1830   63      40/ 14/ 16 1019.3S
SAXON HARBOR     1900   67      50/ 16/ 18 1018.3
$$

LMZ867-665-643>646-282100-
LAKE MICHIGAN

STATION/POSITION TIME  TEMP    WIND        PRES    WAVE
                       AIR SEA DIR/SP/G            HT/PER
                 (UTC) (F)     (DEG/KT/KT) (MB)    (FT/S)
CHAMBERS ISLAND  1900   69      10/  7/  9 1015.9F
N MID LAKE BUOY  1950   68 70   30/  8/  8 1015.0F   1
NORTHPORT PIER   1900   69      70/  9/ 10 1015.6F
SISTER BAY       1921   75      10/ 10/ 14   N/A
ALGOMA LAKESHORE 1913           80/ 13/ 16   N/A
KEWAUNEE LAKESHO 1900   65      20/  6/  9 1014.8F
SHEBOYGAN LAKESH 2000   60      10/ 16/ 17 1014.8R
PORT WASHINGTON  1940   71      10/  5/ 14 1014.6S
ATWATER BUOY     2000   64 63   20/ 19/ 23 1014.5F
MILWAUKEE LAKESH 1910   68     360/ 15/ 18   N/A
S MID LAKE BUOY  1950   75 78   30/  6/  6 1011.3F   2/ 5
KENOSHA   LAKESH 2000   68      10/ 14/ 17 1012.5R
$$

TC  - TEMPERATURE IN CELSIUS
VSB - VISIBILITY IN STATUTE MILES
WCI - WIND CHILL INDEX
HX  - HEAT INDEX





USA.gov is the U.S. government's official web portal to all federal, state and local government web resources and services.